Location: Red Rock Canyon
(36.1333°N, 115.4333°W)
Time: 12:35:05
(UTC-07:00)

ISS - Visible Passes

Search period start: 27 May 2018 00:00
Search period end: 06 June 2018 00:00
Orbit: 402 x 407 km, 51.6° (Epoch: 27 May)

Date Brightness Start Highest point End Pass type
(mag) Time Alt. Az. Time Alt. Az. Time Alt. Az.
29 May -0.4 23:42:23 10° NNW 23:42:52 12° N 23:42:52 12° N visible
30 May -0.8 22:50:54 10° N 22:52:13 12° NNE 22:52:17 12° NNE visible
31 May -0.5 23:33:51 10° NNW 23:34:23 14° NNW 23:34:23 14° NNW visible
01 Jun -1.4 22:41:56 10° NNW 22:43:51 20° NNE 22:43:51 20° NNE visible
02 Jun -1.2 21:50:15 10° N 21:51:59 14° NNE 21:53:20 11° NE visible
02 Jun -0.6 23:25:35 10° NW 23:25:59 13° NW 23:25:59 13° NW visible
03 Jun -2.1 22:33:24 10° NW 22:35:30 32° NNW 22:35:30 32° NNW visible
04 Jun -2.1 21:41:23 10° NNW 21:44:09 25° NNE 21:45:03 22° ENE visible
05 Jun -1.4 20:49:33 10° NNW 20:51:38 16° NNE 20:53:43 10° ENE visible
05 Jun -2.4 22:25:10 10° NW 22:27:17 36° WNW 22:27:17 36° WNW visible
